User: anonymous   Login
Location: Holyhead Bay
(53.3667°N, 4.6667°W)
Time: 16:00:52
(UTC+00:00)
Language:

Cosmos 1408 Rocket - Orbit

View from above orbital plane
View from above orbital plane
View from above satellite
View from above satellite

Ground track
Ground track

The orbit data is extracted from the following two-line orbital elements,

1 13553U 82092B   21136.68441868  .00000066  00000-0  49051-5 0  9992
2 13553  82.5680 342.0883 0021454   4.7611  63.3272 14.84273570 67996
Epoch (UTC): 16 May 2021 16:25:33
Eccentricity: 0.0021454
inclination: 82.5680°
perigee height: 601 km
apogee height: 631 km
right ascension of ascending node: 342.0883°
argument of perigee: 4.7611°
revolutions per day: 14.84273570
mean anomaly at epoch: 63.3272°
orbit number at epoch: 6799

The dashed part of the orbit path shows where the satellite is in the earth's shadow,  

DLR